Skip Page Navigation
NASA JPL Caltech
NASA Logo - Jet Propulsion Laboratory + View the NASA Portal
+ Center for Near-Earth Object Studies
JPL Home Earth Solar System Stars & Galaxies Technology
JPL Solar System Dynamics
BODIES ORBITS EPHEMERIDES TOOLS PHYSICAL DATA DISCOVERY FAQ SITE MAP
JPL Small-Body Database Browser
Search: [ help ]  
58194 (1992 DR6)
Classification: Main-belt Asteroid          SPK-ID: 2058194
Ephemeris | Orbit Diagram | Orbital Elements | Mission Design | Physical Parameters | Discovery Circumstances | Close-Approach Data ]

[ show orbit diagram ]
Orbital Elements at Epoch 2459000.5 (2020-May-31.0) TDB
Reference: JPL 23 (heliocentric ecliptic J2000)
 Element Value Uncertainty (1-sigma)   Units 
e .05760495972742641 3.4779e-08  
a 2.567003665807704 1.1139e-08 au
q 2.419131523018696 9.0942e-08 au
i 2.27127514457349 4.0058e-06 deg
node 98.2393863715166 9.1402e-05 deg
peri 16.75620390761257 9.7697e-05 deg
M 356.2469547472795 3.4184e-05 deg
tp 2459016.160998948226
(2020-Jun-15.66099895)
0.00014265 TDB
period 1502.235982173345
4.11
9.7776e-06
2.677e-08
d
yr
n .2396427753508964 1.5598e-09 deg/d
Q 2.714875808596713 1.178e-08 au
  Orbit Determination Parameters
   # obs. used (total)      863  
   data-arc span      10274 days (28.13 yr)  
   first obs. used      1992-02-29  
   last obs. used      2020-04-16  
   planetary ephem.      DE431  
   SB-pert. ephem.      SB431-N16  
   condition code      0  
   norm. resid. RMS      .51351  
   source      ORB  
   producer      Otto Matic  
   solution date      2020-Nov-12 22:51:58  

Additional Information
 Earth MOID = 1.43563 au 
 Jupiter MOID = 2.32383 au 
 T_jup = 3.428 
[ show covariance matrix ]

Ephemeris | Orbit Diagram | Orbital Elements | Mission Design | Physical Parameters | Discovery Circumstances | Close-Approach Data ]

Physical Parameter Table
Parameter Symbol Value Units Sigma Reference Notes
absolute magnitude H 15.6   n/a MPO417226  

58194 (1992 DR6)          Discovered 1992-Feb-29 by UESAC at La Silla
Reference: 20030614/Numbers.arcLast Updated: 2004-04-19

[ show close-approach data ]
Alternate Designations
 1992 DR6 = 2000 AU63 
Ephemeris | Orbit Diagram | Orbital Elements | Mission Design | Physical Parameters | Discovery Circumstances | Close-Approach Data ]
ABOUT SSD CREDITS/AWARDS PRIVACY/COPYRIGHT GLOSSARY LINKS
FirstGov 2020-Dec-03 08:17 UT
(server date/time)  
NASA Home Page
Site Manager:   Ryan S. Park
Webmaster  Alan B. Chamberlin